DELTA 1 DEB, 10767

Orbit data source: Space-Track

DELTA 1 DEB, 10767 is space debris in SSO originally from a launch on Thu, 29 Jul 1976 UTC launched from the Air Force Western Test Range (AFWTR). Debris objects in space refer to the collection of defunct objects orbiting the Earth. Examples of debris include non-operational satellites, rocket bodies, and fragments generated from explosions, collisions, or faulty payload assembly.

Loading next visibility...
Identifier
10767, 1976-077BQ
Orbit
SSO
Country
Flag of USUS
Related business
Manufacturer
Unknown
Mission
Spacecraft
Bus & Motor
Unknown
Mass
Unknown
Launch date (UTC)
1976-07-29 (50 years ago)
Launch vehicle
Unknown
Launch site
Air Force Western Test Range (AFWTR)
Object type
Payload
Rocket body
Debris
Shape & HBR
Unknown shape, 0.4 m
Radar Cross Section
Medium (>0.1 m² and <1 m²)

Expand to show TLE details & history
Last TLE update: 18 hours ago

TLE from 18 hours ago
0 DELTA 1 DEB
1 10767U 76077BQ  26170.91172486 -.00000007  00000-0  31996-3 0  9991
2 10767 102.4265 156.2577 0063549 236.8163 181.3216 12.31959002243207
Epoch: 2026-06-19T21:52Z
TLE epoch observation values (Epoch: 2026-06-19T21:52:53.027Z)
Latitude
56.11722°
Longitude
-99.15619°
Altitude
1,600.314 km
Speed
7.052 km/s
True Right ascension
09h 08m 47s
True Declination
55° 58' 29"
Sunlit
Object was in daylight at epoch
Visualization orbit readout
Latitude
Unknown
Longitude
Unknown
Altitude
Unknown
Speed
Unknown
Apparent Right ascension
Unknown
Apparent Declination
Unknown
Sunlit
N/A
Visualization observer readout
Local Sidereal Time
03:12:13
Azimuth
Unknown
Elevation
Unknown
Doppler factor
Unknown
Orbital elements
Apogee altitude
1,588.795 km
Perigee altitude
1,488.177 km
Semi-major axis
7,916.623 km
Eccentricity
0.00635
Inclination
102.4265°
RAAN
156.2577°
Arg. of periapsis
236.8163°
True anomaly
181.30494°
Mean anomaly
181.3216°
Eccentric anomaly
181.31326°
Mean motion
3.08129 °/min
Orbital period
116.83 mins
BSTAR
0.00031996
Loading maneuver chart data...
Computing Atmospheric mass density...
Loading historical data...
Loading historical data...
Loading historical data...
Loading historical data...
Loading historical data...
Loading historical data...
Loading historical data...

Documentation

Showing up to 5 results
|